User: anonymous   Login
Location: Unspecified
(0.0000°N, 0.0000°E)
Time: 08:57:33
(UTC+00:00)
Language:

ONEWEB-0617 - Orbit

View from above orbital plane
View from above orbital plane
View from above satellite
View from above satellite

Ground track
Ground track

The orbit is defined by the following mean orbital elements,

1 55158U          26145.40686672 +.00000000 +00000-0 -15148-4 0 00008
2 55158  87.8916  25.6002 0002046  92.4242 267.7120 13.11417627    03
Epoch (UTC): 25 May 2026 09:45:53
Eccentricity: 0.0002046
inclination: 87.8916°
perigee height: 1216 km
apogee height: 1219 km
right ascension of ascending node: 25.6002°
argument of perigee: 92.4242°
revolutions per day: 13.11417627
mean anomaly at epoch: 267.7120°

The dashed part of the orbit path shows where the satellite is in the earth's shadow,  

DLR